Temperature
13 12 12 13 13 14 14 14 15 15 16 15 14 15 16 17 17 17 18 19 20 20 21 21 20 20 19 19 18 17 17 16 15 14 13 12 12 12 12 11 11 11 10 10
11 11 13 14 14 14 14 14 14 15 16 16 14 15 15 15 16 18 18 19 20 20 20 20 20 20 20 19 18 18 17 16 15 15 14 14 13 12 12 11 11 11 10 10
11 12 14 14 14 14 14 13 14 14 15 15 15 14 15 15 17 18 18 19 20 20 20 20 20 20 20 19 19 18 17 16 16 15 14 13 12 11 11 11 11 11 11 10
12 13 14 13 13 14 13 14 14 14 14 13 15 12 13 14 15 16 17 19 20 20 20 20 20 20 20 19 19 18 17 17 16 15 14 13 12 12 12 12 11 11 11 11
11 12 13 13 14 14 14 15 15 14 13 13 13 12 13 14 15 16 16 18 19 20 20 20 20 20 20 19 18 18 17 16 16 15 14 14 13 13 12 12 11 11 11 10
12 13 13 13 14 14 14 14 14 12 12 12 12 12 12 13 15 16 16 18 19 20 20 20 19 19 19 18 18 17 17 16 15 15 14 14 13 12 12 11 11 11 11 10
11 12 13 14 13 14 14 12 12 12 11 11 12 12 13 14 15 15 16 18 19 19 19 19 19 19 18 18 17 17 16 16 15 14 14 13 13 12 12 12 11 11 11 10
10 11 12 13 13 13 13 13 12 11 11 11 12 12 13 14 15 16 18 18 19 19 19 19 19 19 18 18 17 17 16 16 15 14 14 13 13 12 12 11 11 11 11 11
11 11 13 13 14 14 12 13 13 12 11 11 11 12 13 14 14 15 15 17 18 18 18 18 18 18 18 17 17 16 16 15 15 14 14 13 13 12 12 11 11 11 11 10
11 11 12 13 13 14 13 13 12 11 11 11 11 12 13 15 14 14 13 15 17 18 18 18 18 18 17 17 17 16 16 15 15 14 14 13 13 12 11 11 11 10 10 10
11 11 11 12 13 12 12 12 12 11 11 10 10 12 13 14 15 14 14 16 18 18 18 18 18 17 17 16 16 16 15 15 15 14 13 13 12 12 11 11 11 10 10 10
10 10 10 11 12 13 13 12 12 12 10 10 10 12 14 13 14 14 14 17 18 18 18 18 18 17 16 16 16 15 15 15 14 14 13 13 12 11 11 11 10 10 10 10
10 10 10 10 11 12 12 12 13 12 11 9 10 13 14 13 13 14 15 17 18 18 18 17 17 17 17 16 16 15 15 15 14 13 13 12 11 11 11 11 10 10 10 9
10 9 10 10 11 11 11 12 12 12 12 11 11 13 14 14 14 13 15 17 18 18 18 17 17 17 16 16 16 15 15 14 14 13 12 12 11 11 11 10 10 10 9 9
8 8 9 10 11 11 11 12 12 12 13 12 12 13 14 14 13 14 16 16 16 17 17 17 17 17 16 16 15 15 14 14 13 12 12 12 11 11 10 10 10 9 9 9
6 8 9 10 10 11 11 12 12 13 13 13 12 12 13 14 14 14 15 15 15 17 17 17 17 17 16 16 16 15 14 14 13 12 12 11 11 10 10 10 9 9 9 9
6 7 8 9 10 10 11 12 12 13 13 13 13 14 13 13 13 14 15 16 16 17 17 17 17 17 17 16 16 15 15 13 13 12 12 11 10 10 10 9 9 9 8 8
6 6 7 8 9 9 11 12 13 13 13 13 13 13 13 14 15 17 17 17 17 17 17 17 17 17 16 16 15 15 14 13 12 12 11 11 10 9 9 9 8 8 8 8
6 6 6 7 9 9 10 11 12 12 12 13 13 13 13 15 14 15 17 17 18 18 18 17 17 17 16 16 15 14 14 13 12 11 11 10 10 9 9 8 8 8 7 7
7 6 6 6 8 9 11 11 11 12 12 12 12 12 12 12 12 14 16 17 17 17 17 17 16 16 15 15 14 14 13 12 12 11 11 10 9 9 8 8 7 7 7 7
6 6 6 6 8 9 10 10 11 11 12 13 13 13 12 12 14 16 16 16 17 16 16 16 16 15 15 14 14 13 12 12 11 11 10 9 9 8 8 7 7 6 6 6
7 7 7 7 7 8 10 10 11 12 13 14 14 14 14 14 15 15 15 16 16 16 15 15 15 14 14 13 13 12 12 11 11 10 9 9 8 8 7 7 6 6 5 5
7 8 8 8 9 10 10 11 13 14 14 15 15 15 15 14 14 14 15 15 15 15 15 14 14 14 13 12 12 12 11 10 10 9 9 8 8 7 7 6 6 5 5 4
6 7 7 7 8 9 11 12 13 14 15 15 16 16 15 14 14 14 14 14 14 14 14 14 13 13 12 12 11 11 10 10 9 9 8 7 7 7 6 5 5 4 4 4
6 6 6 7 8 9 10 12 13 13 14 15 15 15 15 15 14 14 13 13 13 13 13 13 12 12 11 11 10 10 9 9 8 8 7 7 6 6 5 5 4 4 3 3
5 6 7 8 8 8 9 12 13 13 14 14 14 14 14 15 14 13 13 13 13 12 12 12 11 11 11 10 10 9 8 8 8 7 7 6 6 5 5 4 4 3 3 2
Wind_Speed
8 7 14 16 16 9 7 7 7 7 6 7 11 15 15 12 9 12 12 13 14 15 14 11 12 12 12 14 16 18 18 18 16 14 13 12 11 10 9 10 15 17 17 17
7 17 17 11 11 10 9 8 7 6 4 7 9 14 14 12 11 13 14 14 14 13 11 9 9 10 13 15 17 18 19 19 18 16 14 10 9 7 8 8 12 17 17 17
18 10 13 12 11 13 14 12 11 7 5 3 4 9 10 10 9 10 11 12 11 14 13 11 10 11 12 15 17 17 19 18 18 15 10 7 5 4 5 8 9 11 16 16
15 10 13 14 15 15 16 12 10 8 5 5 3 6 9 8 10 10 11 10 11 11 11 10 10 11 13 15 14 15 17 17 16 16 15 15 12 10 10 8 8 9 13 15
13 13 16 19 18 16 8 8 10 8 7 6 5 5 9 6 10 12 12 11 11 10 11 11 11 12 12 12 12 13 14 15 15 17 18 17 12 9 6 7 9 9 9 12
12 9 14 14 14 14 7 5 3 1 3 9 11 9 9 7 11 10 9 10 10 10 9 9 8 8 8 8 10 11 14 14 15 16 17 17 15 12 11 10 11 9 7 7
13 13 10 9 11 11 9 8 4 4 5 9 8 9 11 11 12 12 11 11 10 9 8 7 8 8 9 10 11 12 14 14 14 16 16 16 16 16 16 13 13 11 8 7
15 14 16 11 13 13 16 15 10 9 8 6 6 10 10 12 10 9 10 9 8 8 8 8 9 9 10 11 11 12 13 12 14 15 15 14 14 13 11 13 11 12 10 10
14 12 9 12 10 14 14 15 9 6 4 4 6 7 8 5 6 8 8 8 10 9 9 9 8 9 9 10 12 13 14 12 13 14 13 12 13 13 12 11 10 10 8 8
7 7 8 10 8 11 13 12 7 8 8 7 6 7 7 8 11 10 10 11 11 10 9 8 8 8 8 9 9 10 11 12 11 12 12 11 12 12 11 11 12 11 10 9
5 6 7 11 15 18 11 12 9 8 6 7 6 8 9 13 13 13 14 12 12 11 10 9 8 8 8 7 8 9 10 9 10 11 11 11 11 11 11 12 12 11 10 11
8 5 7 12 10 13 12 14 13 13 9 8 6 9 7 10 11 12 13 12 10 10 9 8 8 7 7 8 9 10 10 10 10 10 10 10 10 10 11 11 11 11 12 11
8 6 7 4 5 8 11 12 14 11 7 7 9 10 4 3 6 9 10 11 9 9 8 7 7 8 9 9 9 9 10 10 9 9 10 9 10 10 11 11 10 11 11 11
7 6 11 16 11 12 14 14 14 11 12 13 14 11 6 6 7 8 9 10 9 9 9 8 8 8 9 9 9 9 9 9 9 9 10 10 11 10 10 9 10 10 11 11
3 8 10 10 7 12 11 17 19 18 19 17 17 16 14 11 11 11 9 8 8 8 9 10 10 9 9 8 8 9 8 8 9 10 10 10 9 8 8 8 9 9 10 10
3 6 9 12 10 11 10 18 23 24 22 20 13 15 12 10 8 8 9 10 11 11 11 11 11 10 10 10 10 9 9 9 9 10 10 8 8 8 8 9 9 9 8 8
6 3 6 11 10 8 15 21 24 20 19 20 23 23 8 10 13 14 13 13 13 13 12 12 12 12 11 11 11 11 10 9 9 9 8 8 9 8 8 8 8 8 8 7
10 7 4 5 8 14 13 12 15 20 20 18 17 13 13 15 14 12 13 15 14 13 12 11 10 10 9 8 8 8 8 9 9 8 8 8 8 8 7 8 8 7 6 7
15 10 5 6 10 9 7 8 16 18 20 18 19 15 11 9 7 9 11 13 15 14 11 11 10 9 8 8 9 9 8 8 8 9 8 8 9 8 8 8 7 6 5 5
15 12 7 6 8 12 11 8 8 10 15 14 16 17 13 10 11 14 10 10 10 9 8 8 7 7 7 7 9 10 9 9 9 9 8 8 8 9 8 8 6 5 5 5
11 10 12 8 7 9 7 6 12 13 14 10 16 16 15 16 16 10 9 8 9 9 8 8 9 8 7 8 10 10 9 9 8 7 7 7 7 7 7 6 5 5 4 4
9 9 11 9 8 10 5 10 13 10 4 6 11 14 15 15 10 8 10 10 10 9 8 9 9 7 6 8 10 9 8 7 7 7 7 6 6 5 5 6 5 5 5 4
9 9 6 9 9 5 6 8 8 5 6 7 7 9 11 10 8 8 9 10 10 10 9 8 10 8 6 6 9 9 7 7 8 8 7 6 6 5 5 6 6 4 4 4
4 3 4 6 8 8 8 6 4 5 5 5 6 7 9 9 10 9 10 10 9 8 8 8 10 10 7 6 7 7 7 8 9 8 7 6 6 5 4 4 4 4 4 4
6 5 5 7 7 5 7 7 6 4 3 2 3 5 9 11 10 10 10 10 10 8 7 8 10 10 8 7 7 7 8 9 9 8 6 6 5 5 4 3 3 4 4 5
7 8 9 9 6 5 8 8 6 5 5 6 5 4 5 10 11 10 10 9 9 10 9 9 9 9 8 8 7 6 7 9 9 7 6 5 4 4 3 3 1 1 1 2
Wind_Direction
181 181 206 205 200 197 186 191 217 235 231 197 225 242 250 250 245 245 245 243 241 242 242 229 214 204 196 192 189 188 186 184 179 181 182 184 190 189 190 193 192 191 190 188
181 215 212 199 199 207 218 226 238 268 252 217 242 253 253 246 237 237 240 241 239 241 244 229 209 196 191 190 189 188 187 184 183 186 186 187 181 183 188 188 190 191 188 187
204 207 192 194 199 207 221 222 226 238 294 296 269 280 262 259 246 248 243 238 235 230 230 223 209 200 192 192 190 190 189 186 185 179 170 155 145 146 174 190 193 192 189 187
216 214 186 196 206 200 225 217 214 226 240 264 229 273 270 256 265 256 250 241 234 231 221 215 207 201 197 197 191 188 187 185 183 176 176 175 182 189 192 187 188 187 188 186
213 198 197 206 207 195 205 188 200 214 216 249 245 249 270 255 253 253 245 237 234 226 216 215 211 204 199 191 186 185 182 183 181 181 182 184 189 187 171 170 179 186 187 186
221 208 201 206 206 196 174 135 148 148 183 243 225 217 265 227 226 239 237 229 228 222 217 218 212 196 191 183 179 178 178 183 182 183 184 188 186 177 171 178 185 188 188 188
217 226 214 183 184 190 168 152 176 212 222 240 210 213 246 233 227 221 221 222 220 213 205 204 198 192 187 182 180 179 179 183 183 185 188 190 187 183 185 185 188 186 187 193
195 215 210 196 190 186 191 180 184 193 207 241 204 224 247 242 236 226 217 210 207 205 204 205 204 195 190 186 182 180 182 183 184 187 190 189 186 188 192 190 188 191 195 195
193 214 192 196 177 169 181 197 181 157 181 216 238 257 288 246 221 215 205 198 204 207 206 207 203 196 190 187 187 185 184 184 187 189 187 187 188 190 190 187 187 191 191 186
168 198 200 186 163 190 179 167 160 181 186 220 253 239 230 218 212 214 211 210 215 213 210 208 203 198 193 190 187 184 185 187 186 187 188 190 191 191 187 185 190 191 187 182
182 184 191 178 190 188 171 179 175 178 188 186 228 250 218 207 204 204 211 212 209 208 207 206 204 198 189 181 180 184 187 187 188 189 189 189 190 187 186 190 193 190 187 184
197 185 204 208 214 189 180 186 177 189 203 191 205 254 245 214 208 200 205 210 209 206 203 199 194 186 184 187 188 188 190 192 193 188 186 189 186 184 188 192 191 187 187 188
200 189 182 204 211 196 199 195 192 188 169 181 203 247 268 225 210 206 203 206 205 201 196 194 189 189 192 194 193 193 193 194 189 183 185 187 187 188 193 193 188 186 187 187
213 204 206 206 204 188 203 205 191 182 206 215 219 227 236 220 216 217 209 204 200 199 195 194 198 200 198 195 194 195 197 191 184 183 187 191 193 193 192 188 185 185 185 186
230 215 220 227 208 184 204 205 200 205 210 215 223 220 222 217 213 214 211 202 197 204 205 203 202 202 198 196 197 196 195 189 182 183 190 196 191 186 181 181 182 182 185 188
236 219 213 227 218 198 210 208 207 214 217 223 226 234 220 217 217 217 212 203 205 210 210 207 204 199 199 199 197 194 193 187 180 186 192 187 179 178 179 180 178 178 182 183
215 215 202 219 211 205 222 210 207 214 219 216 226 233 203 205 212 217 215 209 207 208 207 205 202 201 201 199 193 193 190 176 177 185 184 179 176 178 179 175 174 180 183 181
212 217 211 199 185 216 232 205 201 215 224 218 225 227 206 213 218 218 212 205 209 207 203 202 200 199 199 190 183 176 165 166 173 177 176 173 171 173 170 169 177 180 179 185
205 200 203 198 206 236 261 206 194 204 229 222 226 230 218 212 217 241 220 206 206 204 199 198 195 191 181 176 170 157 159 163 169 176 177 175 171 169 169 175 180 176 175 185
196 192 197 199 202 219 230 205 182 181 240 226 217 223 214 181 213 236 211 197 197 190 185 182 172 163 163 167 154 152 160 164 177 181 176 168 166 168 174 178 174 166 172 182
181 189 201 208 214 246 238 168 139 181 231 215 208 215 203 201 219 219 178 184 181 175 172 163 152 156 167 155 147 154 160 177 180 162 151 153 160 165 166 160 156 156 159 162
187 187 196 196 208 238 211 152 178 212 206 195 201 206 205 215 213 184 173 172 165 160 158 151 145 148 149 147 148 153 169 170 144 137 140 147 151 149 144 145 148 150 153 163
200 198 194 202 217 240 191 200 213 190 198 205 203 207 197 195 191 180 174 168 163 159 156 149 144 139 133 143 149 155 162 140 132 132 138 141 137 136 141 148 151 150 156 169
230 188 191 225 240 243 243 244 232 213 218 217 202 186 173 176 172 166 162 159 156 153 150 144 139 139 140 140 140 147 140 135 133 137 139 139 138 136 135 142 151 159 172 182
216 199 212 236 250 253 255 243 235 244 241 206 173 180 172 159 161 163 161 161 156 148 143 143 145 146 146 138 132 132 135 135 133 135 136 135 136 141 143 146 165 176 193 192
210 207 209 228 219 210 243 247 233 217 217 193 166 160 166 161 158 155 157 156 149 144 139 136 137 138 138 135 133 134 137 137 137 137 139 140 140 140 141 140 93 9 233 239
Height
1476 1481 1481 1479 1482 1485 1487 1490 1491 1487 1482 1486 1487 1483 1478 1475 1476 1475 1474 1474 1474 1474 1476 1478 1480 1483 1485 1487 1489 1492 1495 1499 1503 1506 1510 1513 1516 1520 1523 1526 1529 1532 1534 1536
1475 1473 1469 1474 1478 1482 1485 1489 1489 1486 1480 1483 1484 1481 1473 1470 1469 1468 1467 1466 1466 1467 1469 1471 1474 1476 1478 1480 1483 1486 1489 1493 1496 1500 1504 1508 1512 1516 1519 1523 1525 1528 1531 1533
1463 1461 1465 1471 1475 1480 1481 1485 1486 1487 1481 1480 1482 1480 1472 1464 1462 1461 1460 1459 1460 1460 1462 1464 1466 1469 1472 1474 1477 1480 1483 1487 1491 1496 1501 1505 1509 1513 1515 1518 1520 1524 1526 1529
1459 1457 1460 1465 1468 1472 1476 1474 1478 1482 1488 1490 1484 1492 1474 1464 1459 1456 1454 1453 1453 1454 1456 1458 1460 1462 1465 1468 1471 1475 1478 1482 1486 1491 1494 1498 1501 1504 1507 1511 1516 1519 1522 1525
1451 1451 1455 1458 1459 1464 1468 1469 1475 1479 1485 1490 1486 1490 1474 1463 1458 1451 1448 1447 1448 1449 1451 1452 1454 1457 1460 1463 1466 1470 1473 1477 1481 1485 1489 1492 1496 1500 1504 1508 1512 1515 1518 1521
1444 1444 1446 1448 1452 1458 1463 1469 1475 1481 1486 1493 1483 1487 1474 1461 1450 1445 1442 1442 1443 1445 1446 1448 1450 1452 1455 1458 1461 1465 1468 1472 1476 1480 1484 1487 1491 1495 1499 1503 1506 1510 1513 1516
1443 1441 1440 1442 1450 1455 1461 1474 1487 1490 1493 1487 1475 1476 1462 1446 1439 1437 1437 1437 1439 1440 1442 1444 1445 1447 1450 1453 1456 1460 1463 1467 1471 1475 1479 1482 1486 1490 1494 1497 1501 1505 1508 1510
1439 1439 1434 1434 1438 1447 1453 1461 1475 1484 1487 1480 1471 1469 1450 1435 1431 1431 1432 1434 1435 1436 1438 1440 1442 1444 1446 1449 1452 1455 1459 1462 1466 1470 1474 1478 1482 1485 1489 1493 1496 1500 1502 1506
1427 1429 1424 1425 1427 1436 1448 1453 1456 1468 1473 1475 1469 1457 1442 1430 1429 1429 1430 1431 1431 1433 1435 1437 1439 1441 1443 1445 1448 1451 1454 1458 1462 1466 1470 1473 1477 1480 1484 1488 1492 1495 1498 1502
1419 1427 1421 1421 1425 1428 1433 1443 1456 1463 1472 1474 1464 1456 1444 1430 1428 1428 1428 1427 1428 1430 1432 1434 1436 1438 1440 1442 1445 1448 1451 1454 1458 1462 1465 1469 1472 1476 1480 1483 1487 1490 1493 1497
1414 1421 1420 1419 1419 1423 1432 1438 1442 1452 1459 1465 1465 1450 1424 1420 1419 1421 1422 1422 1424 1426 1428 1430 1433 1435 1437 1439 1442 1444 1447 1450 1454 1457 1461 1464 1468 1471 1475 1478 1482 1485 1489 1492
1410 1415 1418 1414 1410 1411 1417 1423 1431 1443 1450 1452 1454 1439 1411 1412 1411 1413 1416 1418 1420 1423 1425 1428 1430 1432 1434 1436 1438 1441 1444 1446 1450 1453 1456 1459 1463 1467 1470 1473 1477 1480 1483 1486
1407 1410 1416 1418 1417 1414 1413 1415 1418 1426 1438 1446 1446 1432 1409 1409 1409 1410 1412 1414 1417 1420 1423 1425 1427 1429 1431 1433 1435 1437 1440 1443 1446 1449 1452 1455 1458 1462 1465 1468 1472 1475 1478 1481
1402 1403 1403 1403 1400 1405 1409 1411 1413 1421 1427 1431 1428 1419 1410 1409 1409 1409 1410 1412 1414 1417 1420 1422 1424 1426 1428 1430 1432 1434 1436 1439 1442 1445 1447 1450 1453 1457 1460 1464 1467 1470 1473 1476
1400 1398 1396 1394 1394 1396 1400 1402 1406 1409 1408 1414 1410 1411 1406 1405 1406 1406 1407 1410 1412 1414 1416 1418 1420 1422 1424 1426 1429 1431 1433 1435 1438 1440 1443 1446 1449 1453 1456 1459 1462 1465 1468 1471
1399 1395 1392 1393 1391 1391 1394 1393 1396 1397 1398 1401 1403 1402 1396 1398 1401 1403 1405 1407 1409 1410 1412 1414 1416 1418 1420 1422 1424 1427 1429 1431 1434 1436 1438 1442 1445 1448 1451 1455 1458 1461 1463 1466
1398 1396 1393 1390 1389 1390 1389 1381 1384 1387 1386 1390 1393 1387 1391 1395 1396 1397 1399 1401 1403 1405 1408 1410 1412 1414 1416 1418 1420 1422 1425 1427 1430 1432 1435 1438 1441 1444 1447 1450 1453 1456 1458 1461
1393 1396 1395 1391 1390 1392 1373 1367 1372 1376 1376 1378 1379 1379 1383 1386 1388 1390 1393 1395 1397 1400 1403 1405 1408 1410 1412 1415 1417 1419 1422 1424 1426 1428 1431 1434 1437 1440 1443 1446 1449 1451 1454 1456
1382 1389 1393 1388 1382 1377 1368 1363 1364 1369 1369 1368 1371 1373 1377 1380 1384 1384 1386 1389 1391 1394 1397 1400 1403 1406 1408 1410 1413 1415 1418 1420 1422 1425 1427 1430 1433 1436 1439 1441 1444 1446 1449 1450
1373 1378 1386 1384 1378 1372 1357 1354 1354 1365 1367 1359 1363 1366 1371 1377 1383 1375 1378 1382 1386 1389 1393 1396 1398 1401 1404 1406 1409 1411 1413 1416 1418 1421 1424 1427 1429 1432 1434 1437 1439 1442 1444 1445
1369 1374 1376 1377 1372 1361 1350 1347 1352 1367 1355 1348 1353 1356 1361 1365 1364 1366 1372 1376 1380 1384 1387 1391 1394 1396 1399 1402 1405 1407 1410 1412 1415 1418 1421 1423 1426 1428 1431 1433 1435 1437 1439 1440
1357 1361 1364 1367 1367 1358 1342 1345 1347 1343 1341 1342 1343 1346 1351 1353 1357 1362 1366 1370 1374 1378 1382 1386 1389 1392 1396 1399 1401 1404 1406 1409 1412 1415 1417 1420 1422 1425 1427 1429 1431 1432 1434 1435
1348 1347 1349 1349 1345 1337 1335 1336 1335 1337 1338 1339 1340 1341 1345 1348 1352 1355 1360 1364 1369 1373 1377 1381 1385 1388 1392 1395 1398 1401 1404 1406 1409 1411 1414 1416 1419 1421 1423 1425 1426 1428 1429 1430
1342 1342 1344 1344 1338 1335 1333 1333 1333 1334 1335 1336 1337 1339 1341 1344 1347 1351 1355 1360 1364 1369 1373 1377 1381 1385 1389 1392 1396 1399 1401 1404 1406 1409 1411 1413 1415 1417 1419 1421 1422 1423 1424 1425
1339 1340 1340 1337 1333 1331 1330 1329 1331 1332 1333 1334 1335 1337 1338 1341 1344 1348 1351 1356 1361 1365 1370 1374 1378 1382 1386 1390 1393 1396 1399 1401 1403 1406 1408 1410 1412 1414 1416 1417 1419 1419 1420 1421
1332 1333 1334 1330 1328 1330 1328 1327 1328 1330 1331 1332 1333 1335 1337 1339 1342 1346 1350 1354 1358 1363 1368 1372 1376 1380 1384 1387 1391 1394 1396 1399 1401 1403 1405 1407 1409 1411 1412 1414 1415 1416 1417 1417